This demonstration page uses our WeatherBlox Daily Observations layout. Learn more.

Left ArrowRight Arrow

36.17497, -115.13722

Hourly Observations for January 26, 2016

Temp ( °F °C ) Dew Point ( °F °C ) Humidity (%) Winds ( mph kmh ) Pressure ( in mb ) Visibility ( mi km ) Precip ( " mm )
12:53 am 00:53 Clear 46 7.8 18 -7.8 32 32 N 15 24 30.35 1028 10 16 N/A
1:53 am 01:53 Clear 45 7.2 18 -7.8 34 34 N 14 22 30.37 1028 10 16 N/A
2:53 am 02:53 Clear 44 6.7 18 -7.8 35 35 N 13 20 30.38 1029 10 16 N/A
3:53 am 03:53 Clear 43 6.1 17 -8.3 35 35 N 15 24 30.39 1029 10 16 N/A
4:53 am 04:53 Clear 43 6.1 17 -8.3 35 35 N 13 20 30.40 1030 10 16 N/A
5:53 am 05:53 Clear 42 5.6 17 -8.3 36 36 N 14 22 30.42 1030 10 16 N/A
6:53 am 06:53 Sunny 42 5.6 16 -8.9 35 35 N 8 13 30.45 1031 10 16 N/A
7:53 am 07:53 Sunny 44 6.7 15 -9.4 31 31 N 16 26 30.48 1032 10 16 N/A
8:53 am 08:53 Sunny 46 7.8 16 -8.9 30 30 N 10 17 30.49 1033 10 16 N/A
9:53 am 09:53 Sunny 50 10 16 -8.9 26 26 NNE 15 24 30.49 1032 10 16 N/A
10:53 am 10:53 Sunny 50 10 15 -9.4 25 25 E 5 7 30.48 1032 10 16 N/A
11:53 am 11:53 Sunny 51 10.6 14 -10 23 23 SSE 5 7 30.45 1031 10 16 N/A
12:53 pm 12:53 Sunny 54 12.2 13 -10.6 19 19 N N/A 30.42 1030 10 16 N/A
1:53 pm 13:53 Sunny 55 12.8 13 -10.6 19 19 VRB 6 9 30.41 1030 10 16 N/A
2:53 pm 14:53 Sunny 57 13.9 12 -11.1 17 17 ESE 8 13 30.39 1029 10 16 N/A
3:53 pm 15:53 Sunny 57 13.9 12 -11.1 17 17 SE 7 11 30.39 1029 10 16 N/A
4:53 pm 16:53 Sunny 55 12.8 12 -11.1 18 18 S 3 6 30.39 1029 10 16 N/A
5:53 pm 17:53 Clear 53 11.7 14 -10 21 21 W 3 6 30.40 1029 10 16 N/A
6:53 pm 18:53 Clear 50 10 16 -8.9 26 26 WNW 5 7 30.42 1030 10 16 N/A
7:53 pm 19:53 Clear 47 8.3 16 -8.9 29 29 NW 7 11 30.42 1030 10 16 N/A
8:53 pm 20:53 Clear 46 7.8 15 -9.4 29 29 N N/A 30.42 1030 10 16 N/A
9:53 pm 21:53 Clear 44 6.7 15 -9.4 31 31 E 3 6 30.43 1030 10 16 N/A
10:53 pm 22:53 Clear 47 8.3 13 -10.6 25 25 undefined N/A 30.43 1031 10 16 N/A
11:53 pm 23:53 Clear 44 6.7 14 -10 30 30 N N/A 30.43 1031 10 16 N/A

Powered by AerisWeather